Weather History for KOGD - March, 2014

Change the Weather History Date:

Wednesday, March 26, 2014

  Actual Average Record
Temperature  
Mean Temperature 49 °F -  
Max Temperature 59 °F 56 °F 74 °F (1960)
Min Temperature 39 °F 32 °F 19 °F (1944)
Degree Days  
Heating Degree Days 16    
Moisture  
Dew Point 31 °F    
Average Humidity 63    
Maximum Humidity 89    
Minimum Humidity 16    
Precipitation  
Precipitation 0.13 in - - ()
Sea Level Pressure  
Sea Level Pressure 29.52 in    
Wind  
Wind Speed 11 mph (WSW)    
Max Wind Speed 20 mph    
Max Gust Speed 28 mph    
Visibility 9 miles    
Events Rain    
Averages and records for this station are not official NWS values.
T = Trace of Precipitation, MM = Missing Value Source: NWS Daily Summary

Daily Weather History Graph

Daily Weather History Graph

Search for Another Location

Airport or City:

Trip Planner

Search our weather history database for the weather conditions in past years. The results will help you decide how hot, cold, wet, or windy it might be!

Date:

Astronomy

Mar. 26, 2014 Rise Set
Actual Time 7:21 AM MDT 7:46 PM MDT
Civil Twilight 6:53 AM MDT 8:14 PM MDT
Nautical Twilight 6:21 AM MDT 8:47 PM MDT
Astronomical Twilight 5:47 AM MDT 9:20 PM MDT
Moon 4:34 AM MDT (3/26) 3:27 PM MDT (3/26)
Length of Visible Light 13h 20m
Length of Day
12h 25m
Waning Crescent, 21% of the Moon is Illuminated
Mar 26
Waning Crescent
Mar 30
New
Apr 7
First Quarter
Apr 15
Full
Apr 22
Last Quarter

Hourly Weather History & Observations

Time (MDT) Temp. Windchill Dew Point Humidity Pressure Visibility Wind Dir Wind Speed Gust Speed Precip Events Conditions
12:53 AM 59.0 °F - 12.0 °F 16% 29.40 in 10.0 mi South 16.1 mph - N/A   Clear
1:53 AM 55.9 °F - 16.0 °F 21% 29.40 in 10.0 mi WSW 10.4 mph - N/A   Clear
2:33 AM 57.0 °F - 14.0 °F 18% 29.53 in 10.0 mi South 16.1 mph - N/A   Clear
2:53 AM 55.9 °F - 15.1 °F 20% 29.40 in 10.0 mi SSW 10.4 mph - N/A   Clear
3:53 AM 53.1 °F - 19.9 °F 27% 29.38 in 10.0 mi WSW 10.4 mph - N/A   Clear
4:53 AM 48.9 °F - 21.0 °F 33% 29.40 in 10.0 mi NNW 11.5 mph 21.9 mph N/A   Clear
5:53 AM 48.0 °F - 23.0 °F 37% 29.43 in 10.0 mi NW 9.2 mph - N/A   Scattered Clouds
6:53 AM 46.0 °F 41.0 °F 26.1 °F 46% 29.45 in 10.0 mi NW 10.4 mph - N/A   Overcast
7:53 AM 46.0 °F 39.3 °F 27.0 °F 47% 29.47 in 10.0 mi NNW 16.1 mph 20.7 mph N/A   Overcast
8:53 AM 46.9 °F - 28.9 °F 50% 29.51 in 10.0 mi NW 18.4 mph 27.6 mph N/A   Overcast
9:53 AM 45.0 °F 37.1 °F 33.1 °F 63% 29.52 in 10.0 mi NW 19.6 mph 26.5 mph N/A   Mostly Cloudy
10:53 AM 39.9 °F 32.5 °F 36.0 °F 86% 29.55 in 7.0 mi NW 12.7 mph - 0.00 in Rain Light Rain
11:18 AM 39.9 °F 32.9 °F 37.0 °F 89% 29.62 in 5.0 mi NNW 11.5 mph - 0.01 in Rain Light Rain
11:30 AM 39.9 °F 33.4 °F 36.0 °F 86% 29.62 in 5.0 mi NNW 10.4 mph - 0.02 in Rain Light Rain
11:53 AM 41.0 °F 35.8 °F 37.0 °F 86% 29.55 in 7.0 mi NE 8.1 mph - 0.04 in Rain Light Rain
12:36 PM 42.1 °F 35.7 °F 37.0 °F 82% 29.60 in 10.0 mi East 11.5 mph - 0.02 in Rain Light Rain
12:53 PM 42.1 °F 37.1 °F 35.1 °F 76% 29.52 in 10.0 mi ESE 8.1 mph - 0.02 in   Overcast
1:53 PM 44.1 °F 42.5 °F 34.0 °F 68% 29.52 in 10.0 mi West 3.5 mph - 0.00 in Rain Light Rain
2:33 PM 45.0 °F - 35.1 °F 68% 29.58 in 10.0 mi Calm Calm - 0.00 in   Mostly Cloudy
2:53 PM 45.0 °F 42.6 °F 35.1 °F 68% 29.49 in 10.0 mi SSE 4.6 mph - 0.00 in   Overcast
3:14 PM 45.0 °F - 35.1 °F 68% 29.57 in 10.0 mi Calm Calm - N/A   Overcast
3:53 PM 46.0 °F 42.5 °F 35.1 °F 66% 29.49 in 10.0 mi WSW 6.9 mph - N/A   Overcast
4:53 PM 46.0 °F 43.1 °F 35.1 °F 66% 29.50 in 10.0 mi South 5.8 mph - N/A   Overcast
5:16 PM 44.1 °F 38.6 °F 36.0 °F 73% 29.57 in 4.0 mi West 10.4 mph - 0.02 in Rain Light Rain
5:42 PM 42.1 °F 40.2 °F 37.0 °F 82% 29.57 in 10.0 mi SSE 3.5 mph - 0.07 in   Overcast
5:53 PM 43.0 °F - 37.0 °F 80% 29.52 in 10.0 mi Calm Calm - 0.07 in   Overcast
6:35 PM 42.1 °F 36.1 °F 36.0 °F 79% 29.59 in 10.0 mi North 10.4 mph - N/A   Overcast
6:53 PM 42.1 °F 38.4 °F 36.0 °F 79% 29.55 in 10.0 mi NNE 5.8 mph - N/A   Scattered Clouds
7:53 PM 41.0 °F - 35.1 °F 79% 29.55 in 10.0 mi Calm Calm - N/A   Clear
8:53 PM 41.0 °F 39.0 °F 36.0 °F 82% 29.56 in 10.0 mi SSE 3.5 mph - N/A   Partly Cloudy
9:53 PM 39.9 °F 35.1 °F 36.0 °F 86% 29.60 in 10.0 mi South 6.9 mph - N/A   Scattered Clouds
10:53 PM 41.0 °F 35.2 °F 35.1 °F 79% 29.62 in 10.0 mi South 9.2 mph - N/A   Mostly Cloudy
11:53 PM 39.9 °F 33.9 °F 35.1 °F 83% 29.64 in 10.0 mi South 9.2 mph - N/A   Overcast